Regional Weather Roundup
Issued by NWS

Home | Current Version | Previous Version | Text Only | Print | Product List | Glossary On
Versions: 1 2 3 4 5 6 7 8 9 10 11 12 13 14 15 16 17 18 19 20 21 22 23 24 25 26 27 28 29 30 31 32 33 34 35 36 37 38 39 40 41 42 43 44 45 46 47 48 49 50
000
ASUS42 KFFC 230103
RWRGA
WEATHER ROUNDUP FOR GEORGIA
NATIONAL WEATHER SERVICE PEACHTREE CITY GA
900 PM EDT FRI SEP 22 2017

NOTE: "FAIR" INDICATES FEW OR NO CLOUDS BELOW 12,000 FEET WITH NO
SIGNIFICANT WEATHER AND/OR OBSTRUCTIONS TO VISIBILITY.

* = USE WITH CAUTION. THE STATIONS MARKED WITH AN ASTERISK MAY NOT
REPORT WEATHER SUCH AS PRECIPITATION, FOG, OR THUNDER AND ARE NOT
QUALITY CONTROLLED BY NWS.

THE REMARK "TC" DENOTES TEMPERATURE READING IN DEGREES CELSIUS.

GAZ001>058-230200-
NORTH GEORGIA

CITY           SKY/WX    TMP DP  RH WIND       PRES   REMARKS
ATLANTA        PTCLDY    79  67  66 SE5       30.02R
ATHENS         CLEAR     73  69  87 CALM      30.03R
CHAMBLEE       CLEAR     76  65  68 E3        30.02R
PEACHTREE CITY CLEAR     73  70  90 CALM      30.02R
ROME           CLEAR     78  73  84 N3        30.00R
WEST ATLANTA   MOCLDY    74  72  93 CALM      30.01R
GAINESVILLE    CLEAR     77  65  66 E5        30.06R
CARTERSVILLE   CLEAR     72  72 100 CALM      30.01R


CITY           SKY/WX    TMP DP  RH WIND       PRES   REMARKS
DALTON*        PTCLDY    73  72  94 CALM      30.03R
LAWRENCEVILLE* CLEAR     73  66  78 CALM      30.04R
MARIETTA       PTCLDY    77  67  69 NE3       30.02R
KENNESAW*      CLEAR     77  69  76 CALM      30.03R
CANTON*        CLEAR     77  72  83 CALM      30.05R
$$

GAZ059>098-102>109-230200-
CENTRAL GEORGIA

CITY           SKY/WX    TMP DP  RH WIND       PRES   REMARKS
AUGUSTA-BUSH   CLEAR     72  70  93 CALM      30.00R
AUGUSTA-DANIEL CLEAR     76  73  91 E3        30.02R
COLUMBUS       MOCLDY    80  69  69 SE9       29.98R
MACON          MOCLDY    72  70  93 E6        30.00R
ROBINS AFB     PTCLDY    75  70  85 NW5       29.99R


CITY           SKY/WX    TMP DP  RH WIND       PRES   REMARKS
LAGRANGE*      MOCLDY    75  73  95 CALM      30.00R
SYLVANIA*      CLEAR     73  71  94 CALM      30.01R
MILLEDGEVILLE* MOCLDY    73  72  94 CALM      30.01R
$$

GAZ099>101-110>166-230200-
SOUTH GEORGIA

CITY           SKY/WX    TMP DP  RH WIND       PRES   REMARKS
SAVANNAH       PTCLDY    78  73  84 E8        29.99R
VALDOSTA       CLEAR     79  69  71 E6        29.96R
ALMA           CLEAR     76  67  73 N5        29.98R
ST SIMONS      PTCLDY    80  74  81 E10       29.97R
FT STEWART     CLEAR     75  69  81 SE3       29.96R
ALBANY         CLEAR     78  68  71 CALM      29.97R
HUNTER AFB     CLEAR     77  72  85 E3        29.96R
MOODY AFB      CLEAR     78  69  74 SE6       29.96R
BRUNSWICK      CLEAR     73  70  88 NE3       29.98R


CITY           SKY/WX    TMP DP  RH WIND       PRES   REMARKS
BAINBRIDGE*    CLEAR     79  72  78 CALM      29.95R
MOULTRIE*      CLEAR     77  70  78 CALM      29.97R
VIDALIA*       PTCLDY    73  68  83 CALM      30.00R
WAYCROSS*      CLEAR     77  70  78 SE5       29.97R
DOUGLAS*       CLEAR     77  68  73 NE7       30.00R
$$



USA.gov is the U.S. government's official web portal to all federal, state and local government web resources and services.